Torna al catalogo

QIANFAN-201

AttivoComunicazioniPO
NORAD 69800·PAYLOAD·🇨🇳 China

Lanciato Jul 4, 2026 da Taiyuan Satellite Launch Center

Loading…

Prossimi Passaggi (prossime 24 ore)

TLE

AggiornatoSource: Space-Track

Epoca: Sep 14, 2026, 20:55 UTC

1 69800U 26153A   26257.87190717 -.01789504  00000-0 -14012+1 0  9996
2 69800  88.9974 352.0817 0005807 108.5709 251.6099 13.96335762 10262

Traccia QIANFAN-201 in tempo reale con AllMySat

Download on the App Store